SL-8 DEB

Satellite information

Favourite Embed

Satellite Type and Status

DEBRISIN ORBIT

Key statistics

Satellite SL-8 DEB at a glance.

Uptime

13113

Days in orbit

Revolutions

≈ 14.5

Per day

Orbit

LEO

Low Earth Orbit

Inclination

74.0

Latest

Satellite identification and parameters

Extended collection of information and parameters for SL-8 DEB.

Object identification

Identified? True

Debris? True

Object name: SL-8 DEB

International designator: 1990-004C

Object number (NORAD): 20434

Object ID (CCSDS): 20434

Country: COMMONWEALTH OF INDEPENDENT STATES (CIS)

Current information (Y/N): Y

RCS size: SMALL

Orbital parameters

Period: 99.343 minutes

Inclination: 74.0429 deg

SMA: 7105.333 km

Apoapsis: 738.692 km

Periapsis: 715.705 km

RAAN: 348.7068 deg

Eccentricy: 0.00161762

Argument of periapsis: 298.4145 deg

Mean anomaly: 212.5506 deg

Mean motion: 14.49526244 rev/day

Mean motion (dot): 0.00002579 rev/day2

B* drag term: 0.00067853217 1/REarth

Two-line elements (TLE)

Creation date: Dec. 10, 2025, 7:58 p.m.

Reference frame: TEME

Reference center: EARTH

Epoch: Dec. 10, 2025, 10:43 a.m. UTC

TLE line 0: 0 SL-8 DEB

TLE line 1: 1 20434U 90004C 25344.44712247 .00002579 00000-0 67853-3 0 9990

TLE line 2: 2 20434 74.0429 348.7068 0016176 298.4145 212.5506 14.49526244882810

Live tracking on map

Real-time ground track for satellite SL-8 DEB.

In-orbit conjunctions

A list of the most updated potential collisions computed for object SL-8 DEB.

Target Orbit TCA Probability of collision Miss distance Type
DMSP 5D-2 F13 DEB SSO 2025-01-18 21:36:29 0.0001400517 119.0 (m) DEBRIS
DELTA 1 DEB SSO 2024-12-05 04:47:59 0.0001375669 232.0 (m) DEBRIS

Associated space launch

Military communications satellite

SL-8 DEB was lifted into orbit during the mission ‘Kosmos-3M | Strela-2M 47’, on board a Kosmos-3M space rocket.

The launch took place on Jan. 18, 1990, 12:52 p.m. from 133/3 (133L).

For more information about the launch, click the button.

Launch to space Kosmos-3M | Strela-2M 47
Kosmos-3M | Strela-2M 47

Agency: N/A

Status: Launch Successful

Launch date: Jan. 18, 1990, 12:52 p.m. UTC

Rocket: Kosmos-3M

Launch pad: 133/3 (133L)

Location: Plesetsk Cosmodrome, Russian Federation

...

Latest news about this satellite

There are no fresh news available about this satellite. Check back as we update our databases every day.


Newsletter sign-up

Weekly statistics, charts and insights to help you stay on top of the space industry.